Theta_e
310 310 310 310 310 310 310 310 310 310 310 310 311 311 311 311 311 311 311 311 312 312 312 313 313 313 314 313 314 314 314 313 313 313 313 314 314 314 315 315 314 314 314 315 315 315 315 315 316 316 317 318 319 321 320 319 320 320 321 320 320 320 319 321 320 319 319 319 319 319 319 318 318 318 318 317 317 317 318 318 318 318 318 317 317 317 317 316
310 310 310 310 310 310 310 310 310 310 310 310 310 311 311 311 311 311 311 312 312 312 313 313 313 313 313 313 313 313 313 313 313 313 313 314 315 314 315 315 314 314 314 315 315 315 316 316 317 316 318 320 320 320 321 320 320 320 321 321 320 320 320 321 320 318 318 318 318 318 318 318 318 318 318 317 317 318 318 318 319 319 319 318 318 318 317 317
309 310 310 310 310 310 310 310 310 310 311 310 310 311 311 311 311 311 312 312 312 312 312 313 313 313 313 313 313 313 313 313 313 314 314 314 315 314 314 315 315 314 314 315 315 316 316 316 317 317 318 319 319 320 320 321 320 320 321 320 320 321 321 321 320 319 318 317 319 318 318 318 318 318 317 317 317 317 318 318 319 318 319 319 319 319 318 318
309 310 309 309 310 310 310 310 310 310 310 311 311 311 311 311 311 311 311 311 312 312 312 312 312 312 312 312 312 312 312 314 316 316 315 315 315 314 313 314 315 315 314 314 315 315 315 315 316 317 318 319 319 320 320 321 320 320 321 320 320 320 320 321 319 319 319 318 318 318 318 318 318 318 318 317 317 317 318 318 318 318 318 318 318 318 318 318
309 309 309 310 310 310 310 310 310 310 310 310 311 311 311 311 311 311 311 311 311 312 311 311 311 312 312 311 312 311 312 315 317 315 314 315 315 314 313 314 315 315 314 314 315 315 315 315 316 316 318 318 318 319 319 320 321 320 321 320 320 319 318 319 319 319 319 318 318 318 317 318 318 318 317 317 317 317 317 317 317 317 317 317 317 317 318 318
309 309 309 309 309 310 310 310 310 310 310 310 310 310 311 311 311 311 311 311 311 312 312 311 312 312 312 312 312 312 313 316 315 315 315 315 315 314 314 314 314 315 314 314 314 315 315 315 316 317 318 317 317 318 318 319 320 319 318 319 319 319 319 319 319 319 318 318 317 318 317 318 318 318 318 318 317 317 317 317 317 317 317 317 317 317 317 318
309 309 310 310 310 310 310 310 310 310 311 311 311 311 311 311 311 311 312 312 312 312 312 313 313 313 313 313 313 313 314 316 315 315 315 315 315 314 314 314 314 315 314 314 314 315 316 316 316 317 317 317 317 317 317 319 320 318 317 318 318 318 319 319 318 318 318 318 317 317 318 318 318 317 318 318 318 318 318 318 317 317 317 317 317 317 317 317
310 310 311 311 311 311 311 311 311 312 312 312 312 312 312 312 313 313 313 313 313 313 313 314 313 313 313 312 313 314 315 316 316 315 315 315 315 314 314 314 315 315 314 314 315 316 316 316 316 316 316 316 316 317 317 318 318 318 317 317 318 318 318 318 318 318 318 318 317 317 317 317 317 317 317 317 317 318 318 318 317 317 317 317 317 317 317 317
312 312 312 312 313 313 313 313 313 314 314 314 314 314 314 315 315 315 315 315 315 315 315 315 315 315 315 314 313 314 316 316 316 315 315 315 315 315 315 315 315 315 314 315 315 316 316 316 316 316 316 316 316 317 317 316 316 317 317 317 318 318 318 317 317 317 318 317 317 317 317 317 317 316 316 317 317 317 317 317 317 317 317 317 317 317 316 316
314 315 315 315 316 316 317 317 317 317 317 317 318 318 318 318 318 319 319 319 319 320 320 320 320 320 319 318 316 316 317 316 315 315 315 315 315 315 315 315 315 315 315 315 315 316 316 316 317 317 316 316 316 316 316 316 316 316 316 316 316 316 316 316 316 316 316 317 316 316 316 316 316 316 316 317 317 317 317 317 317 316 316 316 316 316 316 316
318 318 318 318 319 319 319 320 320 320 320 320 321 321 321 321 321 322 322 322 322 322 322 323 323 323 322 320 318 319 319 317 317 317 317 316 315 314 314 314 315 315 315 316 315 315 316 316 316 316 315 315 316 316 316 316 315 315 315 314 315 315 315 315 316 316 316 316 316 316 315 316 316 315 315 316 316 316 316 316 316 316 316 316 316 316 316 316
319 319 319 319 319 319 320 320 319 319 319 319 320 319 319 319 319 319 319 319 318 318 318 318 318 319 319 317 318 321 321 320 321 321 321 319 316 314 313 313 315 315 316 316 316 315 315 315 315 315 315 315 315 316 315 314 314 314 314 313 314 315 315 316 316 316 317 316 315 315 314 314 315 315 316 317 317 316 316 316 315 315 316 316 316 316 316 316
318 318 318 318 317 317 317 317 317 316 316 316 316 316 316 315 315 315 314 314 314 314 314 314 314 314 314 316 317 318 319 320 320 320 320 320 318 315 313 313 314 315 315 316 316 315 314 314 315 315 315 315 315 315 313 313 314 313 314 313 314 315 315 316 317 317 316 315 314 314 313 314 316 317 317 317 317 317 316 315 315 315 315 315 316 316 315 316
315 315 315 315 315 315 314 314 314 314 314 314 313 313 313 313 313 313 313 314 314 314 313 313 313 312 312 314 316 315 316 316 316 317 318 319 318 317 314 313 313 314 314 314 315 314 314 314 314 315 315 314 315 314 313 314 314 314 314 314 314 314 315 317 318 316 315 314 313 313 312 313 315 316 317 317 316 316 315 315 315 315 315 315 315 315 315 315
313 313 313 313 313 313 313 313 313 313 312 313 313 313 313 313 313 314 314 314 314 314 314 313 313 312 313 315 315 315 315 315 315 316 317 318 317 315 314 312 312 312 313 314 314 314 314 314 314 315 315 314 313 313 313 314 314 314 314 315 316 315 316 318 318 316 315 314 313 313 313 314 315 316 317 316 315 315 315 315 315 315 315 315 315 315 315 315
313 313 313 313 313 312 312 312 312 312 312 312 313 314 314 315 316 316 316 316 316 315 314 313 313 312 314 316 316 315 315 315 315 316 316 316 315 314 313 312 311 311 312 313 313 313 313 313 313 314 314 314 313 313 314 314 315 316 315 315 316 316 316 318 318 318 317 314 313 313 313 314 314 315 316 316 315 315 315 315 315 315 315 315 315 315 315 316
313 313 313 313 313 313 312 312 313 313 314 315 317 317 318 319 319 319 318 318 317 316 314 314 313 312 314 316 317 316 315 315 314 314 314 314 314 314 313 312 312 312 312 312 313 313 312 313 313 313 314 314 314 314 315 315 315 316 317 317 317 317 317 316 317 317 316 314 314 313 313 313 314 315 315 315 315 315 315 316 315 315 316 315 316 316 316 316
313 313 313 313 312 312 312 313 314 316 318 320 321 322 322 321 320 320 320 319 317 315 314 313 313 314 317 316 316 315 315 314 314 314 314 314 314 313 313 312 312 312 312 312 313 312 312 313 313 313 314 314 314 314 315 316 316 317 317 317 317 317 316 316 316 317 316 315 315 315 314 314 314 315 316 316 315 316 315 315 315 315 316 316 316 316 316 316
312 312 312 312 312 313 313 314 316 320 322 323 323 323 322 321 321 320 319 317 316 317 317 315 314 317 319 317 316 317 316 316 316 316 315 314 314 313 312 312 313 313 314 314 314 313 313 314 314 314 315 316 315 315 315 316 317 317 317 316 316 316 315 316 316 317 317 316 316 315 315 315 315 315 315 316 315 315 316 315 316 316 316 317 317 317 317 317
312 312 312 313 314 314 315 317 319 322 324 324 324 323 322 323 323 320 318 317 318 319 321 320 318 319 320 320 319 319 318 318 317 316 316 315 314 313 312 313 313 313 314 315 315 314 314 315 315 315 316 317 317 317 316 317 317 317 317 316 316 315 315 316 316 317 317 316 315 315 315 314 314 314 314 315 315 315 316 315 316 316 317 317 317 318 317 316
313 313 314 315 316 316 318 320 322 323 324 324 323 322 323 323 322 321 319 320 321 321 321 322 321 321 321 321 320 319 318 317 316 315 315 314 313 314 313 313 314 314 315 316 316 314 313 315 316 316 317 317 317 317 316 316 316 316 316 315 315 315 315 316 317 317 317 315 314 314 314 314 314 314 314 315 315 315 315 316 317 317 317 318 318 317 316 315
315 316 316 317 318 319 320 321 322 323 323 323 323 322 323 322 322 321 319 320 322 322 321 322 321 321 321 320 319 319 318 317 317 315 314 314 313 314 315 314 314 316 316 316 316 314 315 315 316 316 317 317 317 316 314 315 315 315 315 315 315 316 316 317 317 316 314 313 314 314 313 313 314 314 315 316 315 316 316 317 317 317 318 318 317 316 315 316
318 318 318 319 319 320 321 322 323 324 323 323 323 323 323 323 322 321 318 318 320 321 321 321 320 319 319 319 318 318 318 318 319 317 314 314 313 314 315 315 315 317 316 315 316 317 318 317 317 317 317 316 316 315 315 314 314 315 315 315 316 317 317 317 317 315 314 313 314 314 314 314 316 316 316 317 317 317 317 317 317 318 317 316 315 315 315 315
319 319 320 320 321 321 322 322 323 324 323 323 323 323 323 322 322 320 317 318 320 320 320 318 318 317 317 317 315 316 317 317 318 316 314 314 314 314 315 316 316 316 316 316 316 317 318 318 316 316 316 316 316 316 315 315 315 316 317 316 316 317 317 316 316 315 314 315 314 314 315 316 317 318 317 317 318 318 318 318 318 317 316 315 314 314 315 315
321 321 321 321 321 322 323 323 324 324 324 324 323 323 323 322 321 318 316 319 321 320 318 316 315 315 314 314 313 314 316 315 315 314 313 314 314 314 314 315 315 317 317 316 316 316 317 316 315 315 315 315 315 315 315 316 315 316 317 317 316 316 316 315 315 315 315 315 314 313 316 317 317 317 318 318 318 318 319 319 317 316 315 315 315 314 313 313
322 322 322 321 322 323 324 324 324 324 324 324 323 323 323 322 320 317 316 320 324 321 319 316 315 313 311 311 312 312 315 315 313 312 312 312 313 313 314 314 314 315 316 315 316 316 315 315 314 315 315 316 316 315 315 316 315 316 317 317 316 316 315 315 315 315 315 315 314 313 315 317 317 317 318 318 318 319 319 318 316 315 314 314 314 312 311 311
324 324 323 322 324 324 325 325 325 324 325 325 323 323 323 322 320 317 317 324 326 321 318 315 314 313 311 311 311 312 316 314 311 311 311 311 312 312 313 314 314 314 313 314 316 316 315 314 313 314 315 315 316 316 316 315 315 317 315 314 315 314 314 315 315 314 314 314 315 314 314 316 317 318 319 318 318 318 316 314 314 314 313 312 311 310 309 309
325 325 324 323 324 325 325 325 325 324 325 325 324 323 323 322 320 317 320 329 327 318 315 313 312 312 310 310 310 310 312 312 312 312 310 311 311 311 312 314 314 314 312 313 316 316 314 314 315 314 314 315 315 316 316 316 316 316 313 312 313 313 313 314 313 313 314 314 316 315 315 317 318 318 319 318 317 317 314 313 313 312 312 310 309 309 308 307
325 325 324 324 324 325 324 325 325 324 325 324 324 324 323 322 320 318 322 328 325 316 314 312 311 311 310 311 311 310 310 310 312 311 310 311 311 311 311 312 313 313 312 313 315 315 313 312 312 313 314 315 314 314 314 315 315 314 312 312 313 313 313 313 313 313 313 315 317 317 316 318 319 319 319 318 316 316 313 312 312 311 310 309 309 308 306 305
325 324 324 324 324 324 324 324 324 324 324 324 324 323 321 320 320 323 327 327 322 317 314 312 312 312 311 311 312 311 311 311 311 310 310 311 311 310 310 310 310 312 312 312 313 314 312 309 309 311 313 314 312 311 311 313 313 312 312 313 313 314 314 314 313 313 314 317 318 317 317 317 319 319 318 317 316 315 314 312 311 311 310 308 307 306 305 304
324 324 323 323 323 323 323 322 322 323 323 323 324 322 320 321 322 327 329 323 319 317 314 313 313 312 312 314 315 314 311 311 311 311 312 311 311 311 311 311 311 312 314 314 313 314 313 310 310 312 312 312 312 311 310 310 310 311 312 312 313 315 315 314 314 313 317 320 319 317 317 317 319 318 317 317 316 314 314 312 311 310 308 307 305 304 303 303
323 323 322 321 321 321 321 321 321 322 322 323 323 321 320 323 324 326 325 320 321 320 315 314 314 312 313 315 317 316 312 312 310 311 313 313 313 313 313 315 315 316 318 317 317 317 316 315 313 313 311 311 312 313 312 311 310 311 312 312 314 317 318 319 318 317 319 320 316 315 316 317 318 318 317 318 315 311 312 312 310 308 307 305 304 303 302 301
319 320 320 319 319 319 319 320 321 321 322 323 322 320 321 323 324 324 323 322 324 320 316 315 313 313 314 316 318 315 313 314 310 309 312 312 313 314 315 316 315 317 319 318 318 318 319 318 316 314 312 311 312 314 315 314 311 311 312 313 315 318 321 323 322 322 322 320 315 314 316 317 318 317 317 317 313 310 310 309 308 307 305 304 303 302 301 300
316 317 317 317 318 318 318 319 320 321 322 321 320 321 323 323 323 322 322 323 321 317 316 316 315 315 315 317 319 315 316 316 311 309 312 312 313 315 316 314 312 314 316 316 318 318 319 319 316 316 315 312 312 314 317 317 314 313 314 314 315 317 320 321 322 322 322 321 318 316 317 319 319 316 314 312 310 309 308 306 305 305 303 303 302 301 300 299
316 315 316 317 317 317 317 318 319 320 321 320 320 322 323 323 323 321 321 322 320 318 317 316 317 319 318 319 319 316 317 318 313 312 313 314 315 317 318 316 312 312 314 316 317 317 318 319 317 315 313 313 313 314 316 318 316 313 312 312 314 317 320 320 319 320 320 319 318 317 317 318 317 316 312 309 309 307 306 306 305 304 303 302 301 300 300 299
317 316 317 317 317 317 316 316 318 319 320 320 320 322 322 322 322 321 320 320 319 319 318 317 319 320 320 320 319 317 317 317 315 314 315 316 317 317 317 317 314 312 313 317 318 317 317 318 319 315 311 312 314 314 314 316 315 312 310 313 314 315 318 318 317 318 318 318 318 317 317 317 317 318 313 309 308 306 305 305 304 303 302 301 300 300 299 298
315 315 315 316 316 316 316 315 317 318 319 319 320 321 321 320 321 320 319 317 316 318 319 320 320 320 320 320 319 318 317 316 315 315 316 316 316 316 317 317 316 314 314 316 317 317 316 316 318 317 314 313 312 311 312 312 312 312 313 315 314 313 313 314 316 317 317 318 319 317 318 317 317 318 315 310 308 306 304 303 302 302 301 300 299 298 297 297
312 312 312 314 314 314 314 314 316 318 318 319 320 320 319 319 319 319 318 316 316 317 319 320 320 319 319 319 318 318 317 316 316 315 316 315 315 316 316 317 317 315 315 316 316 316 316 316 317 317 317 314 310 310 312 311 311 313 313 312 313 314 314 313 315 316 318 319 319 318 318 317 317 318 315 312 309 306 304 302 301 301 300 299 298 297 296 296
308 308 308 309 310 311 312 313 315 317 317 318 319 319 319 318 318 319 318 317 317 318 318 319 319 318 318 317 317 317 316 316 315 314 315 314 314 315 315 315 317 314 313 314 314 315 315 315 316 316 316 315 312 312 315 313 311 310 310 310 311 312 313 314 315 316 317 318 318 319 318 318 317 316 315 312 309 307 305 303 302 301 300 300 299 298 297 296
306 306 307 308 308 308 309 312 315 317 318 318 318 318 318 318 318 317 317 317 317 317 317 317 317 317 317 317 316 316 315 316 315 314 314 313 314 315 314 314 315 314 311 312 313 314 314 314 315 314 313 313 313 314 315 314 312 310 310 311 311 311 312 313 314 315 317 317 318 318 318 318 316 312 311 310 307 307 306 304 303 302 301 300 299 298 298 297
305 307 309 309 307 307 308 312 315 317 318 317 316 317 317 317 316 316 316 316 316 317 316 316 316 316 316 316 316 315 315 316 316 315 315 314 314 315 313 312 314 314 312 313 313 313 313 314 314 314 313 313 314 314 314 314 313 313 312 312 312 312 312 313 314 315 316 316 317 317 318 319 313 308 308 308 305 306 305 304 303 302 301 300 299 298 297 297
305 307 309 310 308 307 309 313 315 315 316 316 314 315 316 316 315 315 316 315 315 316 316 315 315 316 316 315 315 315 315 316 316 316 315 315 314 314 312 310 312 313 312 314 314 311 308 310 312 314 314 313 314 314 314 313 312 312 313 313 312 312 313 314 315 316 316 316 317 316 318 319 310 305 305 306 304 305 304 304 303 302 300 299 298 298 297 296
307 309 309 309 309 309 310 313 314 313 315 315 315 315 315 315 315 315 315 315 315 316 316 315 315 315 314 314 314 314 314 314 315 314 314 314 314 312 310 310 310 311 312 313 314 311 308 309 312 313 313 313 313 314 313 311 311 312 313 313 312 312 314 314 313 314 314 315 316 315 317 317 308 302 304 305 304 304 303 303 303 301 300 298 297 297 296 295
307 308 309 309 310 310 311 312 312 313 313 313 314 314 314 314 314 314 313 314 314 314 314 315 314 314 314 314 314 314 314 314 314 314 314 314 313 309 308 310 310 309 311 311 312 313 311 312 313 313 314 313 313 313 313 312 311 312 313 313 312 312 313 312 311 312 312 314 315 314 316 315 306 301 303 304 303 304 303 302 301 301 300 298 297 296 294 294
306 306 308 309 310 310 311 312 311 312 312 312 313 313 312 313 314 313 313 312 313 313 313 313 313 313 313 313 313 313 313 313 313 313 313 313 313 309 308 309 310 309 309 308 309 311 311 311 312 312 313 313 312 313 313 312 312 312 313 313 312 312 312 312 311 312 313 314 314 313 314 313 307 303 303 303 302 302 301 299 299 299 298 298 296 295 294 294
304 304 307 309 310 310 310 310 311 311 311 311 312 312 311 311 312 313 312 312 312 312 312 312 313 312 312 312 312 312 312 312 312 312 312 312 312 309 306 307 308 307 306 305 307 309 309 309 310 310 311 311 311 311 310 311 311 311 312 312 311 311 312 312 311 311 312 312 311 312 312 311 309 308 306 304 302 301 300 299 298 298 297 296 296 295 295 293
301 302 306 307 309 309 309 309 310 311 311 310 311 311 310 310 310 311 311 310 310 311 311 311 311 311 310 310 311 310 310 310 311 311 311 311 311 309 306 306 305 304 304 305 306 307 307 307 308 308 309 309 309 309 309 309 309 309 309 309 309 310 311 311 311 310 310 310 309 309 310 310 309 308 308 306 304 302 301 299 298 297 296 296 295 295 295 294
299 302 305 306 307 309 309 309 309 309 310 310 309 309 309 309 308 309 310 310 310 310 310 310 310 310 310 310 310 310 309 310 310 310 310 309 309 307 306 307 305 303 304 305 305 306 306 305 305 306 307 307 307 307 307 307 308 308 308 308 308 308 308 309 309 308 308 309 308 308 308 308 307 306 306 305 303 301 299 297 296 296 295 295 295 294 294 295
299 299 302 303 304 306 307 308 308 309 309 309 308 308 308 308 307 308 309 309 309 309 309 309 309 308 307 308 309 309 310 309 309 308 308 308 307 305 304 305 304 303 303 304 304 305 305 305 305 305 305 306 306 306 306 306 306 306 306 306 306 306 306 307 307 306 307 307 306 306 306 306 305 305 304 301 300 299 297 296 295 295 295 295 294 294 294 294
299 299 300 301 302 303 303 305 307 308 308 308 308 308 307 306 306 307 308 308 308 308 308 308 307 305 303 305 307 307 308 308 307 306 306 306 305 304 304 304 303 302 302 302 303 304 304 305 304 303 304 305 304 304 304 304 304 304 304 304 304 304 304 304 304 304 305 304 304 304 304 305 303 301 299 297 297 297 296 296 296 295 295 294 293 293 293 293
297 298 299 300 301 301 301 303 305 306 306 307 307 307 307 306 305 306 306 306 305 306 307 306 305 303 302 303 304 304 305 304 304 304 303 303 303 303 303 303 302 302 301 302 302 302 302 303 302 302 302 303 303 303 303 302 301 301 301 302 302 302 302 302 303 303 303 303 303 303 303 303 301 298 297 297 296 295 295 295 295 294 294 293 293 293 293 293
295 296 297 299 301 301 300 301 303 304 305 306 306 306 306 306 305 305 305 303 302 302 304 305 305 303 303 303 303 303 303 302 301 300 300 300 300 300 300 300 301 301 301 301 301 301 301 301 301 301 301 302 302 301 300 299 299 299 300 301 301 301 301 301 301 301 301 301 301 301 301 300 298 296 296 295 294 294 294 294 294 294 293 293 292 292 292 292
Wind_Speed
1 1 1 1 1 1 1 0 0 1 1 1 1 1 1 1 1 1 1 2 2 3 4 4 6 6 7 8 10 11 12 14 15 17 17 12 5 4 3 5 5 7 8 8 10 9 6 6 7 6 5 6 6 5 6 6 5 5 4 5 5 6 6 3 4 7 7 8 7 5 3 6 10 6 5 7 11 14 17 21 19 17 22 27 25 22 24 22
2 2 2 2 2 2 2 2 2 2 2 2 2 2 3 3 3 3 4 4 4 5 5 6 7 8 9 9 11 13 14 15 17 20 16 5 1 2 4 4 4 5 7 7 8 8 7 7 8 7 6 7 7 6 7 6 7 7 5 6 6 7 8 5 7 11 10 10 12 13 10 9 10 9 7 8 12 13 15 20 19 17 21 24 22 21 20 17
4 4 4 3 3 4 3 4 4 4 4 4 4 4 4 4 5 5 5 6 6 7 7 8 9 10 10 11 12 13 14 17 19 16 5 5 3 5 5 4 5 5 5 7 6 8 8 7 8 8 8 8 7 6 6 6 7 9 7 6 7 8 10 9 9 12 13 14 14 15 14 12 12 12 9 10 14 13 14 18 18 18 18 17 16 16 18 19
5 5 5 5 5 5 5 5 6 6 6 6 6 6 6 6 7 7 7 8 8 8 9 10 10 11 12 12 13 13 16 18 12 5 7 6 4 10 9 6 6 5 5 7 8 10 11 8 7 8 8 9 8 7 7 8 6 6 7 8 9 10 10 11 13 13 12 12 13 16 15 15 14 11 11 12 12 10 15 19 18 19 18 16 15 15 14 20
7 6 6 6 7 7 7 7 7 8 8 8 8 8 9 8 9 9 9 9 10 10 10 11 12 13 13 14 14 13 14 10 1 6 8 4 10 14 12 9 6 5 4 6 9 11 10 8 7 8 9 10 9 7 10 12 9 6 9 13 16 15 12 13 15 11 8 9 13 16 15 14 12 9 13 15 12 11 17 21 22 24 22 20 20 19 16 20
8 8 8 8 8 8 8 8 9 9 9 9 10 10 10 10 10 10 11 11 11 12 12 12 13 13 14 14 15 12 8 6 3 4 7 9 14 14 13 11 7 6 4 5 8 9 9 8 9 9 9 10 10 9 10 11 9 7 11 15 17 16 14 16 15 9 8 12 15 16 15 17 14 13 17 18 18 22 26 26 28 30 29 25 22 21 20 22
9 9 9 9 9 9 9 9 10 10 10 10 11 11 11 12 12 12 12 12 13 13 14 14 14 15 15 15 16 12 8 12 15 13 14 16 16 13 12 10 6 6 5 5 7 9 9 9 11 11 10 9 10 12 12 9 9 9 11 14 17 17 16 17 16 12 11 14 18 18 17 19 19 16 19 20 22 26 29 30 31 33 31 27 23 21 22 24
11 10 10 10 10 10 10 11 11 11 11 11 12 12 13 13 13 14 14 14 14 15 15 16 16 16 16 16 15 11 11 16 19 16 15 14 11 10 9 7 7 8 7 7 8 8 9 10 12 11 10 10 10 10 8 7 10 12 13 15 16 16 16 17 17 15 14 15 18 17 18 23 24 20 22 28 28 28 31 32 31 29 27 24 23 22 21 24
12 12 11 11 11 12 12 12 12 13 13 13 14 14 15 15 15 16 16 16 16 16 17 17 18 17 17 17 12 9 13 16 15 12 10 8 9 9 9 8 9 10 9 8 9 9 10 10 12 10 10 12 11 10 7 7 8 7 10 14 14 14 17 18 19 18 16 16 15 14 18 24 24 20 21 26 26 24 26 28 26 23 22 21 21 22 21 23
14 13 13 13 13 13 14 14 14 14 15 15 15 16 16 16 17 17 17 17 17 17 17 17 18 17 17 17 11 9 12 13 11 10 10 11 12 12 12 12 11 12 11 11 11 11 11 10 10 9 11 13 11 11 10 8 5 7 9 13 15 19 22 22 23 22 19 18 17 15 17 23 22 14 14 19 17 13 15 19 20 19 20 20 20 21 22 23
16 15 15 15 15 15 15 15 15 15 16 16 16 17 17 17 17 17 17 17 17 17 17 17 18 17 18 16 12 11 13 14 14 15 16 17 17 16 15 14 14 13 12 12 12 12 12 12 11 9 8 7 7 9 10 8 8 10 11 13 18 22 23 23 23 23 18 15 15 16 16 20 19 12 17 26 22 16 15 16 18 19 21 21 21 22 22 24
17 16 16 16 16 16 16 16 16 16 17 17 17 17 17 17 17 17 17 17 17 17 16 17 17 17 18 17 18 20 20 19 19 18 18 19 19 19 17 15 15 14 13 12 12 12 13 14 13 11 8 5 7 7 5 4 6 10 10 11 16 17 18 22 21 21 18 9 6 7 10 14 13 13 23 28 23 17 15 16 17 18 20 21 22 23 24 24
16 16 16 16 16 15 15 15 16 16 16 17 17 17 17 17 16 16 16 16 16 15 15 15 16 17 16 15 19 22 19 18 17 16 17 18 18 18 16 15 15 15 14 13 13 14 14 14 13 13 12 10 9 8 5 4 5 9 10 8 11 12 12 17 15 11 10 6 9 5 7 9 10 14 20 18 13 10 11 16 19 20 21 21 22 23 25 27
16 16 15 15 15 14 14 14 14 14 15 15 15 15 15 15 15 15 14 14 14 13 13 13 14 13 12 15 19 19 18 16 15 15 16 17 18 19 16 14 14 15 15 16 17 16 15 13 12 12 13 12 10 9 9 9 7 8 10 6 7 8 8 12 7 6 4 5 10 8 7 8 12 15 16 10 5 7 12 20 24 25 23 22 24 25 27 30
15 14 14 14 13 13 13 12 12 12 13 13 13 13 13 13 13 13 13 12 12 12 12 13 13 11 11 15 18 17 15 12 11 11 11 14 16 15 14 13 13 14 15 16 17 16 14 11 10 10 10 11 10 9 9 8 7 7 8 7 7 7 8 10 6 8 6 3 11 10 6 8 11 12 12 10 8 11 16 22 26 27 25 24 26 26 28 30
13 13 12 12 11 11 11 10 10 10 11 11 11 12 12 12 12 12 12 11 11 11 11 11 11 9 8 12 14 13 11 8 8 9 10 12 13 12 13 11 9 12 14 15 16 14 12 9 9 10 9 7 8 8 7 6 7 7 8 9 8 9 10 8 6 7 5 2 10 13 8 9 9 12 18 19 21 23 22 25 28 29 27 25 26 26 26 25
11 11 11 11 10 10 10 9 8 9 9 9 10 11 11 12 12 11 11 10 10 9 8 8 7 7 10 14 14 10 8 7 7 7 8 8 9 11 10 8 8 10 11 11 12 10 9 9 7 7 8 8 7 6 6 6 6 6 7 9 10 11 10 8 7 5 2 4 9 12 11 13 12 15 21 23 24 24 25 28 29 29 27 24 25 25 23 21
10 10 10 10 9 9 9 8 7 7 7 8 8 9 10 10 10 11 10 9 7 5 5 6 5 4 8 13 11 6 6 8 7 8 9 8 8 8 7 7 7 7 7 7 8 9 9 9 7 5 7 8 8 6 7 8 9 10 10 9 10 11 11 12 11 7 6 11 14 13 14 16 16 16 19 22 22 20 25 30 28 26 26 26 25 24 20 18
9 9 9 9 8 8 8 7 6 6 6 7 7 8 9 9 9 9 7 5 4 3 4 4 8 5 8 9 10 11 14 15 13 14 14 12 9 7 8 7 6 8 8 5 7 11 10 7 6 5 8 9 9 10 12 14 15 17 15 11 12 13 13 15 15 13 15 16 14 15 16 16 16 16 17 21 23 23 27 30 28 25 25 26 25 21 14 8
8 8 8 8 8 7 7 7 6 6 5 6 7 7 7 6 6 4 2 6 9 10 11 9 11 14 17 16 14 16 17 15 14 13 12 9 5 5 6 6 7 8 8 5 6 9 9 7 7 8 10 11 12 13 15 16 16 18 15 12 14 15 13 14 15 14 14 13 11 13 16 16 16 16 17 23 24 23 24 25 26 25 25 24 19 10 3 2
8 8 8 8 8 7 7 6 6 6 6 5 6 5 4 5 4 3 5 11 13 14 17 19 18 19 21 18 17 20 15 11 10 10 10 5 4 6 7 9 6 6 8 8 3 4 5 7 8 11 13 14 13 10 10 12 14 15 13 12 14 13 13 15 16 15 11 9 9 12 15 16 17 18 20 23 19 17 19 20 22 26 23 15 5 4 4 5
9 9 8 9 8 8 7 6 6 6 6 5 5 4 3 5 5 6 8 10 14 16 20 22 20 22 25 21 23 27 17 10 10 8 6 4 7 6 6 8 6 5 6 6 3 2 5 9 12 14 14 14 13 9 9 11 13 13 11 11 11 9 12 14 12 8 3 3 8 13 15 14 17 21 20 17 13 14 18 21 24 22 14 7 6 7 7 5
10 10 10 10 9 9 8 7 7 6 5 5 5 4 5 6 7 8 7 7 13 16 17 18 17 17 19 16 18 21 14 12 11 7 5 5 8 8 7 6 8 7 5 7 8 7 7 6 8 13 14 13 13 11 11 12 11 10 9 10 10 9 12 10 7 5 3 6 11 13 13 12 15 15 10 8 9 11 17 24 22 10 4 4 5 6 7 11
12 12 12 11 10 10 9 8 8 6 4 4 5 5 7 7 8 10 7 6 8 10 12 13 11 10 11 9 10 11 9 9 7 7 8 7 8 8 8 9 9 9 8 10 12 11 13 7 1 6 11 11 13 12 11 10 9 11 11 10 11 12 14 13 11 11 11 11 9 9 10 7 4 3 3 3 6 8 18 18 5 5 6 5 7 11 14 16
13 13 13 12 11 10 9 9 8 5 4 5 6 6 7 7 7 9 6 6 5 6 8 5 3 4 4 4 5 6 7 7 7 9 10 10 9 6 4 6 7 8 9 12 12 11 12 5 3 5 9 10 12 11 11 11 8 10 10 10 13 14 14 15 14 12 9 6 1 5 8 3 2 1 3 4 6 13 19 8 8 11 9 11 14 16 18 19
14 15 14 12 10 10 9 7 6 5 4 5 5 6 6 6 7 8 5 4 5 3 4 3 3 2 1 1 3 5 6 5 7 10 10 11 11 7 3 3 5 6 4 5 7 6 5 3 3 5 9 9 10 10 12 12 9 8 5 5 9 11 12 12 12 8 6 6 2 3 6 5 4 8 8 6 10 15 8 8 13 13 15 17 18 20 21 21
17 16 14 11 10 10 9 7 7 6 4 5 4 5 4 4 6 7 3 5 5 2 4 3 2 1 1 1 4 5 3 4 4 5 8 10 9 6 5 4 4 3 1 1 4 1 4 6 3 3 6 8 8 9 9 8 9 6 3 5 6 8 10 9 7 6 6 8 9 5 7 8 7 6 5 7 12 8 8 15 14 15 18 19 21 23 22 22
20 18 15 12 11 12 11 11 10 9 7 6 5 4 3 4 5 4 3 5 2 3 3 3 2 1 1 4 5 2 1 4 3 2 7 10 8 4 5 6 5 3 4 5 4 1 2 4 4 4 6 6 8 7 2 4 8 2 5 4 4 4 6 6 5 7 7 8 8 5 7 7 7 3 3 6 7 3 12 13 13 16 18 19 21 21 21 21
22 19 17 15 14 14 14 14 14 12 10 8 6 5 3 2 3 2 2 3 0 2 2 3 2 2 3 5 4 2 1 1 1 2 6 8 9 5 3 3 5 5 5 7 8 4 1 2 0 2 5 5 5 3 5 2 5 2 3 3 3 3 5 5 6 6 6 8 9 6 9 6 7 4 2 3 2 5 10 10 12 15 17 17 18 19 20 20
23 21 20 17 15 14 14 13 11 9 8 7 5 3 1 0 2 3 4 3 1 1 3 3 2 3 5 5 5 5 3 0 2 5 5 4 8 7 3 2 3 5 6 8 10 9 2 4 2 4 9 6 1 3 4 2 1 2 3 5 5 7 6 5 5 4 5 8 8 7 13 8 6 3 0 2 4 4 7 10 10 13 16 16 16 17 18 20
19 17 16 13 12 11 10 9 7 6 7 6 4 2 1 0 2 4 4 1 2 1 4 3 2 3 5 3 2 4 4 3 5 6 5 3 6 7 3 3 3 3 5 5 7 9 6 5 2 5 9 5 1 1 1 3 1 1 3 4 6 6 4 5 4 3 5 6 3 1 7 9 7 1 1 2 8 8 6 10 10 12 15 15 15 15 16 20
11 11 10 10 11 11 9 8 6 6 7 5 4 3 1 1 4 5 2 1 1 2 2 2 2 3 4 1 2 1 1 2 4 3 1 1 2 5 4 3 2 2 5 3 1 4 5 7 7 4 4 6 5 3 2 3 2 3 3 4 5 5 4 5 4 4 6 4 3 4 1 6 8 5 8 5 8 12 9 12 13 13 15 14 14 13 14 20
9 10 11 11 12 11 10 10 8 7 6 5 5 4 2 4 5 3 3 3 1 1 1 3 2 2 2 1 2 1 1 1 3 1 1 1 1 3 4 2 1 2 4 2 4 4 3 3 8 6 2 7 8 3 2 2 4 5 4 4 4 5 6 7 6 6 7 2 3 2 0 4 7 6 9 5 10 16 15 17 17 16 16 14 13 13 15 19
10 12 14 14 14 13 12 12 10 8 7 7 7 4 3 7 3 0 4 6 1 1 1 2 2 3 3 3 2 3 1 1 4 3 1 2 2 3 5 4 3 1 1 1 2 3 5 4 6 7 4 9 10 6 1 2 2 4 1 1 3 4 5 6 5 6 7 7 5 2 2 4 4 3 6 9 15 17 17 18 17 16 16 14 13 14 16 19
15 17 19 19 18 16 13 13 12 10 10 10 7 2 6 7 2 2 5 4 1 1 1 1 2 3 5 6 3 4 2 2 4 4 3 4 4 5 5 4 7 5 2 2 2 3 6 7 5 4 5 11 9 4 4 4 0 1 1 1 2 2 2 3 5 6 7 9 9 5 4 5 6 1 11 15 16 16 16 16 16 15 14 14 14 14 15 17
19 20 21 20 19 16 14 13 13 12 13 11 5 5 8 5 3 4 2 1 1 1 1 3 4 5 7 6 4 5 4 3 3 3 4 6 7 9 9 4 7 11 7 4 2 2 5 6 4 5 3 8 8 5 6 4 1 1 2 3 1 1 2 2 5 4 4 8 7 6 7 8 8 6 9 15 14 13 12 12 13 13 13 14 13 12 12 14
19 19 20 20 19 16 15 15 14 14 15 11 6 7 6 5 9 7 1 2 0 1 0 3 3 3 6 5 3 5 5 4 4 4 4 5 6 8 10 7 7 13 13 8 3 3 6 8 4 8 7 6 5 4 3 3 2 3 3 2 1 1 1 2 4 3 4 8 6 7 11 10 7 6 6 14 12 10 10 10 10 10 11 12 11 10 11 12
19 19 21 22 19 16 16 16 15 16 15 9 8 10 6 6 10 8 4 4 1 1 3 5 3 2 6 7 8 7 5 4 5 5 5 6 4 3 6 7 7 9 12 10 4 1 3 8 6 7 8 4 6 2 3 3 2 1 1 0 1 2 3 4 4 4 6 9 6 7 11 10 8 7 3 9 11 10 9 8 8 7 8 9 8 8 10 11
17 15 17 21 21 20 19 17 17 18 13 7 9 10 6 7 8 8 8 6 2 4 7 8 7 6 8 10 11 9 5 6 8 7 6 6 5 3 2 3 3 3 2 5 5 2 2 6 6 1 0 2 5 3 6 5 2 2 0 1 1 2 5 4 3 2 6 9 8 7 9 8 6 4 1 7 11 11 9 8 6 7 7 7 7 6 5 6
13 9 10 15 18 21 21 19 19 17 11 8 9 7 4 4 5 6 8 7 5 6 8 9 10 9 11 12 12 10 8 10 10 9 8 7 7 2 4 5 3 4 3 1 4 3 2 6 7 2 1 2 4 4 6 8 5 3 4 5 4 3 2 3 3 3 5 9 9 9 9 7 2 3 4 8 9 9 9 8 6 6 7 6 5 4 3 3
12 6 6 11 15 20 24 21 16 12 8 8 8 7 6 4 1 3 6 8 9 8 6 7 10 10 10 11 11 9 8 8 9 9 8 8 10 4 4 5 4 4 2 1 2 2 2 4 7 7 5 6 7 2 1 5 3 1 3 5 6 5 3 4 7 6 5 7 7 9 10 4 1 4 4 7 7 7 8 7 7 7 7 6 5 4 3 3
13 5 5 12 15 22 26 16 10 9 8 9 7 5 5 2 1 4 4 5 7 6 4 5 7 8 8 9 9 9 7 6 7 9 7 7 10 6 3 5 4 5 3 3 1 1 1 1 5 8 9 11 13 5 3 2 2 2 3 2 2 3 2 5 8 5 3 4 4 6 8 3 2 4 5 7 6 7 7 6 6 6 6 5 4 3 3 3
12 6 7 13 16 24 23 9 7 9 8 10 8 5 5 3 3 5 4 4 5 4 4 5 7 8 9 8 8 9 8 7 8 10 9 9 7 0 4 4 3 3 2 2 2 2 2 1 4 6 6 9 14 6 4 4 1 2 3 1 1 4 3 4 5 2 2 4 4 6 6 1 3 4 5 6 5 5 5 5 5 4 3 3 2 2 3 3
10 6 8 13 19 26 19 6 7 10 9 10 9 9 10 9 8 8 7 7 7 6 5 6 8 9 7 3 3 7 8 6 6 6 7 8 2 6 6 5 3 1 2 1 1 1 1 2 3 4 4 5 7 5 2 2 1 0 0 1 1 4 4 3 3 2 3 5 6 7 5 1 1 1 1 1 1 1 1 2 2 1 1 2 0 1 1 2
8 6 6 13 23 26 16 7 6 8 11 12 12 12 13 10 10 11 11 10 10 9 6 5 6 7 6 4 3 5 6 5 3 2 2 4 1 4 6 6 5 2 2 3 1 1 3 4 3 5 6 5 6 7 5 2 1 0 1 2 3 5 6 4 3 5 6 4 4 6 5 2 2 5 6 5 5 4 4 4 3 4 3 3 3 3 2 2
6 5 4 11 20 21 14 9 7 7 10 12 11 11 13 12 9 9 9 11 13 13 11 8 6 5 7 8 8 8 9 9 7 5 4 5 2 3 4 5 5 4 3 3 1 1 3 5 7 9 10 9 10 11 10 9 7 7 7 7 8 9 8 6 5 8 8 6 6 8 8 8 8 8 7 7 8 7 6 7 8 7 6 5 3 4 3 3
5 4 5 8 10 12 10 8 8 8 10 11 7 7 12 14 10 8 9 8 8 9 11 10 9 9 10 10 11 11 11 12 10 9 9 8 4 1 3 3 4 4 3 3 2 1 3 6 9 12 13 14 15 15 15 14 14 14 14 14 16 16 12 10 12 13 10 10 11 9 10 13 11 10 11 7 7 8 6 6 6 5 5 5 3 4 5 6
4 1 5 9 6 7 8 7 8 9 11 11 8 7 9 11 11 9 9 7 2 3 6 7 8 10 8 7 8 9 9 9 8 8 7 5 3 1 2 3 3 3 3 3 2 1 4 8 10 12 13 15 16 16 16 16 14 13 14 15 16 18 17 16 16 16 13 12 13 12 15 17 14 14 16 9 3 6 4 3 3 3 3 3 4 5 7 8
4 2 3 7 4 2 3 5 8 10 11 9 8 10 11 12 12 7 3 4 4 5 6 6 5 3 0 1 4 6 7 6 4 4 3 1 0 2 2 2 3 4 3 2 3 2 4 6 6 6 9 12 14 15 15 14 13 13 13 14 16 19 21 20 18 18 17 17 18 19 22 23 19 14 8 2 6 5 3 2 2 3 3 2 3 5 7 8
4 2 2 5 2 1 2 4 9 9 8 7 7 9 11 13 13 6 3 3 6 6 6 6 4 4 2 1 3 5 5 3 3 3 1 1 2 3 3 4 2 3 2 1 2 2 4 3 1 3 5 9 11 13 12 11 12 12 14 16 19 20 20 18 17 17 17 19 21 22 23 20 12 2 5 8 7 4 3 1 2 3 2 2 4 6 7 8
8 5 4 3 3 4 4 4 8 8 6 8 8 7 9 13 14 10 3 2 4 6 7 6 4 4 2 3 5 7 4 0 1 2 2 1 3 3 2 1 1 1 1 2 1 1 3 3 2 3 6 7 8 10 10 9 8 10 13 17 20 19 16 15 14 14 14 17 18 18 16 10 1 6 6 6 5 4 1 2 3 3 2 4 6 7 8 9
8 7 5 3 2 5 6 3 7 9 7 8 9 8 8 7 8 10 8 3 3 2 6 7 6 4 5 7 6 5 0 3 3 2 3 1 2 3 4 4 3 4 3 2 2 2 3 4 4 5 5 5 7 8 6 4 7 10 11 13 16 16 15 15 15 15 18 17 14 11 7 1 4 5 3 3 4 3 4 4 4 4 4 5 7 9 9 9
Wind_Direction
337 346 353 0 0 355 350 323 272 266 240 248 262 262 268 261 285 278 283 295 293 303 303 309 316 316 320 321 321 322 321 320 319 310 306 307 294 281 313 311 295 275 257 251 246 237 238 226 219 220 209 216 227 231 234 234 218 216 235 248 256 263 280 293 280 299 303 300 304 285 249 277 291 277 259 274 266 263 272 274 268 256 256 268 276 274 278 284
291 294 297 295 291 291 291 286 280 280 274 272 272 268 266 267 273 268 274 281 282 290 292 297 302 305 310 313 316 318 318 318 312 305 302 289 202 341 337 320 317 291 262 254 249 226 214 215 214 215 211 223 231 227 241 229 208 222 248 263 256 265 288 299 291 298 298 292 297 298 292 281 283 287 285 279 275 275 276 275 272 263 257 265 273 278 282 282
280 282 282 281 281 281 280 282 282 283 283 281 280 279 276 277 277 274 277 279 283 288 290 294 298 303 305 309 312 315 320 317 307 302 288 144 91 6 346 313 307 303 262 245 235 211 214 219 211 213 222 239 231 214 236 215 208 232 240 260 259 267 282 279 285 291 289 292 293 294 296 287 280 279 270 266 276 278 272 271 274 271 270 270 274 281 278 276
274 275 278 279 279 280 281 282 282 283 283 284 283 284 283 283 282 281 281 283 286 286 289 293 296 300 302 307 309 314 322 312 296 259 165 149 349 339 332 306 289 293 259 235 217 210 219 220 212 219 234 250 234 214 236 213 202 233 224 249 269 282 286 276 287 291 286 292 291 291 294 286 283 277 255 258 274 270 262 268 273 276 285 290 292 298 279 270
268 270 272 275 277 279 280 280 281 281 281 282 283 283 283 283 283 283 284 285 287 287 289 292 294 298 299 302 303 314 323 314 252 169 183 229 311 314 313 303 285 276 258 234 225 223 224 217 213 222 234 254 243 224 243 226 216 250 239 250 267 276 280 280 290 290 279 290 288 285 285 285 288 272 252 255 259 257 265 276 283 285 291 295 293 297 280 264
265 266 268 270 271 272 274 274 276 277 278 280 280 281 281 281 282 282 283 284 285 286 287 289 291 293 294 297 298 305 310 294 295 236 235 280 297 295 296 293 279 260 246 225 229 228 221 211 213 225 235 252 251 242 257 236 210 249 258 256 265 271 274 282 290 281 268 279 279 279 285 288 282 270 267 260 252 257 266 274 282 285 288 291 289 286 274 265
265 266 266 266 267 269 269 270 271 272 273 274 274 276 276 277 278 278 279 280 281 283 283 285 286 287 290 291 294 295 267 265 281 277 278 289 286 282 285 284 263 237 234 228 229 221 214 214 220 239 250 253 260 256 261 248 216 242 269 269 272 275 275 280 286 277 266 267 270 278 286 282 272 275 280 270 262 264 269 273 277 283 287 288 286 278 270 269
266 266 268 269 269 269 269 271 271 271 272 272 272 272 273 274 274 275 276 276 278 279 280 282 283 284 288 289 294 289 251 260 281 284 285 282 273 276 273 263 239 230 239 237 228 221 220 228 233 246 257 258 270 267 258 252 240 243 258 270 277 276 275 278 281 273 262 261 268 275 273 269 270 279 282 274 271 269 271 275 276 280 283 283 281 276 271 272
267 268 269 269 269 270 271 272 272 272 273 273 274 274 275 275 275 276 275 276 277 278 280 281 282 283 286 288 288 278 259 267 283 284 279 266 263 269 262 257 241 233 243 239 225 223 226 239 246 244 260 275 278 270 259 249 256 262 265 278 287 284 280 281 279 269 258 259 263 264 263 266 274 282 277 270 272 271 269 272 276 280 282 281 279 277 274 274
268 269 270 271 271 272 272 272 273 273 274 274 275 275 276 276 277 278 277 278 278 278 280 280 282 282 283 284 273 264 267 269 273 273 273 270 267 265 263 261 248 239 242 240 232 228 232 249 257 246 263 280 276 267 257 245 276 307 295 292 287 283 282 278 275 270 259 259 256 251 262 271 279 283 272 270 274 274 269 270 278 286 286 284 280 279 278 277
268 269 271 271 272 273 273 274 275 275 275 275 276 276 277 277 278 278 278 279 279 279 280 278 280 279 279 277 254 251 266 267 271 278 277 274 269 264 262 258 249 241 235 239 243 238 237 249 253 247 259 270 270 267 247 246 284 292 295 297 283 279 279 272 270 267 258 256 251 245 262 275 277 265 255 268 276 274 271 272 278 285 288 288 283 280 279 278
267 268 270 271 272 273 273 276 276 277 278 278 279 279 279 280 280 281 280 281 280 280 278 277 276 274 277 270 251 255 267 270 276 280 276 272 269 265 261 254 245 237 231 235 247 245 240 247 248 242 253 270 280 277 243 250 284 281 284 287 282 280 276 270 267 263 255 241 210 229 265 270 261 245 248 262 274 269 263 270 277 281 285 287 284 281 278 275
268 269 271 273 273 274 275 277 277 279 280 280 282 282 283 284 285 285 284 284 284 282 280 277 275 273 273 265 261 266 271 272 274 275 272 270 268 265 261 253 242 239 236 232 241 248 243 247 245 242 255 266 270 277 281 277 264 274 276 267 280 284 275 273 266 252 248 203 154 190 271 279 272 268 269 276 279 261 259 277 285 285 285 284 282 279 276 275
270 271 273 275 276 278 279 279 280 281 282 283 285 285 287 288 288 289 289 289 286 285 281 276 276 273 263 263 271 275 273 273 272 269 270 268 266 267 264 254 243 240 239 236 242 249 249 243 236 244 255 251 264 288 283 267 251 270 278 252 261 273 273 280 261 178 201 166 160 204 260 278 284 287 290 304 294 256 269 285 289 286 284 281 277 275 273 273
271 273 275 276 279 280 280 281 282 282 283 285 285 286 288 289 290 291 291 289 287 283 279 275 273 266 263 269 274 276 275 272 268 267 264 262 265 268 265 257 249 244 239 241 244 247 249 239 225 240 251 241 256 281 274 264 257 261 272 260 249 258 273 282 247 201 233 185 170 205 262 274 276 289 293 302 294 277 279 284 285 284 282 279 275 273 272 274
271 272 272 274 275 276 278 279 279 280 281 283 285 288 289 291 293 292 291 289 286 281 276 274 266 253 262 272 272 277 283 275 271 272 262 259 260 260 263 261 249 242 237 237 242 243 240 227 221 237 249 246 246 256 264 267 262 248 250 262 261 266 281 285 268 251 257 173 183 210 256 279 277 288 290 293 292 288 286 284 282 282 281 278 275 274 274 277
269 268 267 268 269 270 272 271 273 276 278 283 287 290 293 295 294 293 293 289 286 282 271 263 254 249 256 264 270 277 286 288 283 276 269 265 259 255 260 255 236 234 230 230 234 226 214 206 213 235 235 242 247 247 259 256 256 257 253 261 260 261 277 286 293 298 184 195 229 231 246 265 272 281 284 285 286 286 286 282 279 282 283 280 278 277 276 280
260 261 261 262 262 264 265 264 265 267 276 287 290 295 298 299 298 293 289 284 280 275 262 232 203 235 251 253 265 274 287 296 293 287 283 278 272 258 240 230 219 203 194 207 211 193 192 199 204 235 231 232 239 229 238 245 255 276 280 284 280 273 283 290 292 302 283 271 275 268 263 272 280 282 282 282 284 282 279 278 280 285 287 283 278 277 279 282
249 250 252 254 253 255 256 256 255 258 276 292 301 310 310 309 302 289 273 255 236 243 273 202 194 253 288 275 277 281 285 290 288 286 281 277 275 249 222 216 193 184 188 188 189 185 189 197 196 225 234 231 229 220 233 249 262 280 287 291 290 285 284 287 286 291 294 290 286 282 280 286 292 291 287 283 280 276 273 278 286 288 283 279 276 279 285 281
240 240 243 244 245 247 249 252 255 264 284 300 325 332 324 324 306 280 244 250 250 259 276 263 242 263 280 285 288 285 287 292 288 282 276 272 259 219 198 182 178 199 220 213 183 180 194 210 207 218 234 244 247 244 250 260 270 281 286 284 281 280 279 282 282 283 291 290 282 285 288 292 296 294 284 276 273 274 274 279 285 281 274 273 276 288 326 337
236 237 240 241 245 246 246 256 267 284 300 316 348 349 330 337 311 305 318 289 271 265 271 274 266 261 265 273 275 272 281 297 290 281 278 255 191 194 178 174 193 219 225 217 174 142 198 227 228 231 245 256 265 276 284 282 280 280 282 281 277 277 279 281 281 284 294 293 282 287 292 295 297 289 278 273 273 272 273 275 271 268 272 281 310 13 13 331
240 240 242 244 249 252 256 270 283 298 315 331 357 351 321 337 317 311 318 295 280 278 278 278 270 260 261 262 261 262 266 277 274 269 272 200 177 203 179 178 221 240 204 192 195 202 222 237 238 240 252 261 266 280 288 282 278 276 275 275 273 278 283 283 282 284 302 295 290 298 298 295 287 278 277 280 271 256 257 258 255 260 283 328 13 350 336 13
249 249 249 252 256 262 269 277 287 299 314 331 344 334 327 335 326 325 319 283 283 286 277 270 260 256 263 261 261 265 258 253 254 239 228 178 179 203 199 205 240 249 208 200 232 243 246 254 240 240 249 259 262 263 267 270 269 262 258 264 272 281 283 286 292 292 292 284 291 301 296 286 275 265 269 277 253 242 252 256 256 267 348 7 360 2 35 74
256 258 259 261 262 267 273 275 281 288 298 324 331 328 336 336 334 340 323 267 276 276 258 256 251 250 259 253 255 257 234 231 234 215 210 200 191 193 207 228 240 247 233 232 244 248 259 279 62 238 249 255 262 263 263 265 263 256 255 261 269 277 281 289 302 305 300 288 290 305 295 283 270 218 146 221 238 258 268 264 248 87 85 83 66 64 69 73
260 263 265 265 264 270 276 279 278 272 293 321 327 331 343 345 345 350 327 264 261 246 235 241 223 232 254 244 238 223 205 207 207 205 198 193 192 180 202 220 225 246 241 239 248 254 264 266 127 239 255 253 259 262 256 255 266 269 263 263 267 277 288 295 303 310 304 287 355 1 315 289 124 271 290 290 276 271 273 277 89 87 82 82 79 75 70 64
263 265 267 265 269 279 282 286 279 263 293 314 323 338 346 354 349 348 337 268 264 204 177 179 174 191 279 256 179 176 188 195 208 214 200 193 194 196 235 183 193 258 269 252 258 266 265 225 182 252 257 253 253 254 252 250 263 274 284 299 285 287 296 298 303 306 294 289 332 16 305 281 269 276 278 272 263 266 288 49 68 68 72 75 69 65 62 57
260 263 265 258 260 271 268 267 265 259 277 292 309 335 341 354 349 351 345 261 265 135 130 139 161 186 259 171 165 181 183 135 162 203 199 199 191 199 244 200 189 244 188 259 277 237 208 216 220 239 240 244 243 251 252 238 250 269 13 3 323 306 301 302 305 289 278 293 289 243 231 263 283 279 246 231 253 275 54 69 70 64 63 64 63 62 58 55
255 258 259 250 246 257 258 257 261 260 262 269 285 306 316 337 342 347 304 269 281 100 118 117 136 212 178 150 156 171 71 114 135 168 185 193 177 175 239 243 271 269 172 212 252 124 144 201 215 215 226 238 242 266 310 230 248 294 44 1 337 320 300 300 294 281 284 294 286 213 194 253 286 278 196 222 249 60 78 79 80 67 53 55 63 64 59 56
248 251 253 249 247 253 256 260 264 266 266 264 271 288 303 307 308 312 261 260 297 113 122 118 139 152 144 159 176 187 138 124 343 121 164 185 181 186 244 267 294 285 217 224 248 269 63 109 4 253 242 258 263 319 20 295 266 20 31 321 303 264 263 268 267 280 289 277 273 223 192 241 295 282 207 193 194 100 97 89 84 78 65 60 59 58 63 66
244 248 250 247 246 248 252 260 264 263 260 256 259 285 325 257 263 247 216 223 318 92 129 150 151 151 179 189 189 195 202 136 102 137 152 171 187 203 248 285 280 269 240 235 250 261 223 105 36 259 244 262 19 65 42 10 336 8 309 296 286 262 248 247 253 272 275 265 278 234 198 219 292 307 300 110 92 84 106 105 93 83 76 65 55 53 60 71
244 249 246 240 239 240 244 252 256 251 247 244 247 233 175 232 247 233 221 257 317 140 143 166 154 166 197 209 195 193 191 147 148 172 180 165 182 197 215 228 220 240 249 239 240 245 219 191 217 224 229 238 197 187 114 85 84 279 279 293 299 276 240 240 227 205 251 262 326 36 186 221 253 286 48 106 82 64 80 107 103 87 77 66 58 55 57 68
242 240 238 239 240 237 238 243 248 246 238 235 231 193 149 278 236 221 221 6 282 217 163 155 156 179 193 268 314 208 176 162 171 202 207 137 187 197 209 231 216 257 267 269 273 248 227 217 208 185 191 205 215 232 172 145 168 218 243 263 288 284 258 257 242 222 251 245 92 69 101 241 250 264 272 273 75 74 77 94 101 95 85 76 68 62 60 68
254 249 250 250 248 243 238 237 231 222 221 217 196 149 120 245 235 209 202 215 261 283 56 81 111 157 174 252 278 159 331 183 153 182 2 65 291 233 240 261 23 305 279 316 340 296 276 231 190 180 165 186 196 217 240 214 183 192 226 240 256 281 280 274 273 269 267 270 91 97 347 269 263 267 262 263 84 89 89 88 93 94 92 89 82 73 67 69
260 264 261 255 252 245 234 230 223 212 207 191 163 135 210 230 230 88 215 220 227 50 73 77 129 185 202 231 204 154 231 235 149 165 179 159 220 245 245 224 182 226 264 253 305 251 262 277 186 179 152 165 190 222 248 63 152 199 252 296 262 276 279 279 286 285 287 307 314 250 204 270 288 45 89 95 90 92 91 92 94 93 93 91 83 76 70 71
240 246 249 248 247 240 229 225 219 209 196 178 157 180 228 227 216 209 230 229 197 153 158 164 219 243 247 241 207 168 223 243 158 173 205 210 237 255 251 214 182 179 174 225 237 193 245 257 196 156 135 158 185 207 136 108 129 246 62 70 252 218 198 250 266 274 296 306 292 254 238 274 287 74 107 104 96 94 93 94 93 89 91 87 77 71 68 73
238 239 241 242 241 236 226 219 213 203 191 179 180 225 224 232 229 218 252 271 204 184 165 210 222 249 260 248 203 176 190 211 186 194 224 226 247 258 258 244 177 180 186 206 224 199 252 260 162 126 162 187 193 173 159 185 197 121 175 201 233 113 147 242 259 250 264 276 270 250 255 266 272 252 137 111 96 95 91 84 85 84 85 84 76 71 68 74
240 239 239 239 237 233 223 213 207 198 189 186 215 233 225 234 234 232 223 90 116 28 36 241 231 249 267 265 241 199 176 191 206 202 232 243 250 245 244 245 186 187 202 214 246 230 253 278 212 180 221 221 180 155 171 205 145 136 201 216 46 38 121 241 257 233 230 256 257 249 262 265 265 262 139 113 103 100 93 84 86 84 82 83 81 81 81 81
244 244 247 243 236 228 218 208 200 195 190 195 230 238 237 233 234 231 186 145 173 263 215 238 239 260 264 264 275 261 188 189 219 217 243 263 261 218 229 236 187 188 214 220 244 238 236 280 262 201 226 204 128 161 235 210 170 157 230 18 89 252 250 222 231 239 240 255 258 249 265 266 250 253 193 128 119 114 111 104 99 93 93 94 93 92 88 85
246 244 251 249 236 224 216 202 192 193 196 209 229 233 235 233 231 220 193 172 186 222 235 251 245 243 253 258 276 274 230 233 254 256 257 261 253 202 200 264 171 139 241 219 236 265 191 266 279 140 273 121 129 194 229 213 171 77 2 277 129 247 268 247 227 236 244 258 265 251 257 260 255 279 110 121 120 124 128 121 113 111 111 110 112 112 98 81
231 226 247 244 227 217 208 192 188 196 205 220 229 232 238 243 230 206 199 198 210 228 244 255 246 245 257 261 265 265 255 255 259 261 259 257 259 216 73 8 8 60 39 193 235 260 201 237 260 292 38 206 204 217 243 248 238 191 209 220 209 209 240 266 249 223 239 257 261 256 254 245 262 6 76 110 111 118 121 117 117 112 110 110 109 112 108 87
208 213 243 221 208 201 190 181 189 205 216 227 238 241 238 249 215 173 191 207 223 239 252 258 255 256 262 262 260 258 261 260 253 256 258 252 254 247 70 25 358 34 25 258 241 265 244 240 255 265 253 242 247 243 357 294 287 268 237 225 229 230 208 241 245 224 223 248 254 259 261 241 79 13 57 95 94 96 99 102 107 103 100 98 89 82 76 59
195 215 219 197 193 185 176 175 201 209 215 228 232 230 220 215 189 190 184 200 223 237 243 250 254 255 255 257 261 262 259 254 249 250 253 248 249 254 39 29 14 25 1 298 302 62 35 289 262 262 257 265 280 296 82 61 20 350 274 255 299 289 246 244 252 247 241 259 270 267 260 249 47 16 48 73 70 73 75 76 89 95 93 86 75 66 55 43
201 215 187 182 184 178 172 183 217 204 219 233 231 227 211 206 224 209 190 201 222 222 219 230 237 241 248 253 256 258 256 251 247 247 249 253 253 22 38 15 18 16 339 291 259 130 118 230 252 258 261 278 285 280 110 100 136 236 239 182 309 278 269 257 254 283 298 258 269 268 252 248 19 7 41 64 59 59 64 64 72 81 89 86 54 25 38 45
202 200 182 181 178 176 179 202 210 205 221 227 231 235 228 230 235 227 219 217 219 224 228 234 239 240 245 264 266 254 257 256 247 247 253 260 274 71 49 17 40 21 333 332 289 274 263 261 277 288 286 289 278 250 161 97 108 191 262 116 223 254 266 270 242 243 241 217 227 256 266 255 74 336 35 106 131 163 133 85 75 85 132 134 185 332 28 20
187 185 190 185 180 183 199 230 218 216 219 219 231 234 231 235 228 225 235 235 230 234 238 240 247 249 247 255 267 251 248 249 250 260 255 253 267 68 43 26 48 57 30 53 54 296 280 275 282 283 275 268 260 255 271 316 85 150 238 207 228 235 236 258 273 261 253 226 216 253 273 266 191 216 220 212 216 213 198 191 195 202 198 192 213 228 254 321
190 196 181 181 190 202 225 245 240 239 222 219 231 232 231 238 222 203 215 236 241 239 239 247 253 256 250 245 250 251 243 239 238 243 249 248 239 83 62 48 58 72 87 81 50 279 271 269 257 256 259 260 264 273 292 303 288 277 276 266 265 254 235 239 258 257 265 279 266 251 255 264 264 258 239 204 200 215 209 200 199 194 192 197 216 237 261 296
221 224 174 173 201 221 235 235 229 234 228 224 228 229 234 239 233 204 194 218 248 238 236 249 247 241 244 240 244 253 253 249 243 242 254 261 254 148 133 109 72 75 116 106 51 277 260 267 259 255 256 259 265 272 280 283 277 276 279 275 272 269 257 247 251 258 271 278 269 260 263 270 277 283 283 260 212 213 212 199 197 192 192 203 219 243 262 275
227 264 170 174 196 221 224 219 205 211 227 231 232 237 238 232 230 225 206 201 214 208 222 242 238 238 250 249 241 244 247 250 245 238 249 263 252 217 177 150 115 98 136 158 158 201 257 265 264 266 265 264 268 271 272 273 276 280 279 274 273 272 265 259 259 266 270 266 268 278 279 277 280 283 287 289 202 186 189 181 191 204 217 226 239 254 265 268
230 307 189 181 193 224 208 187 181 199 220 225 232 241 238 231 229 226 190 192 206 207 220 234 219 193 38 282 228 226 231 240 246 230 213 110 211 253 264 232 164 124 124 191 203 223 259 256 263 283 283 277 274 273 273 275 279 278 272 269 268 265 264 266 269 271 269 266 271 276 274 274 278 283 292 54 111 135 144 150 215 246 250 261 277 283 287 287
227 264 178 175 189 83 93 158 178 195 213 210 224 239 234 234 236 223 139 194 221 212 212 226 202 126 93 174 200 223 242 268 291 268 160 122 260 261 265 263 228 128 117 191 220 266 269 258 41 4 300 278 271 271 273 275 276 275 270 266 263 262 265 270 272 271 269 268 269 269 270 273 278 329 83 101 108 106 112 172 278 277 281 315 311 306 309 311
230 221 174 178 209 162 141 173 187 198 215 208 215 228 224 232 239 235 214 180 224 234 233 224 176 130 148 220 226 245 258 69 282 269 124 178 274 301 301 271 234 143 187 202 202 279 279 281 0 334 282 267 265 273 280 284 282 273 262 257 255 259 264 264 264 265 265 267 268 266 269 276 325 87 100 113 102 79 36 327 323 319 325 329 318 311 313 317
232 221 196 202 226 178 166 173 193 204 220 217 220 228 228 232 232 227 226 162 120 245 262 241 213 208 234 240 245 260 232 111 129 118 100 165 276 293 280 265 256 248 236 229 250 256 252 264 282 280 273 266 265 275 298 314 286 266 249 241 245 252 258 258 259 259 259 262 268 271 275 316 88 91 98 96 73 25 338 329 323 315 317 319 312 307 311 318